This is the latest recevied weather packets stored in our database for station/object TF3VP. If no packets are shown the sender has not sent any weather packets the latest 10 day(s).
| Time | Temp. | Humidity | Pressure | Rain* | Wind** | Luminosity | Snow |
|---|---|---|---|---|---|---|---|
| 1777621541 | 1.11° C | 59% | 1011.1 hPa | 0 mm | - | 34 W/m² | - |
| 1777621237 | 1.11° C | 58% | 1010.7 hPa | 0 mm | - | 42 W/m² | - |
| 1777620933 | 1.11° C | 58% | 1010.7 hPa | 0 mm | - | 39 W/m² | - |
| 1777620629 | 1.11° C | 58% | 1010.7 hPa | 0 mm | - | 36 W/m² | - |
| 1777620325 | 1.11° C | 57% | 1010.7 hPa | 0 mm | - | 32 W/m² | - |
| 1777620023 | 1.11° C | 56% | 1010.7 hPa | 0 mm | - | 34 W/m² | - |
| 1777619719 | 1.11° C | 58% | 1010.4 hPa | 0 mm | - | 28 W/m² | - |
| 1777619414 | 0.56° C | 56% | 1010.4 hPa | 0 mm | - | 34 W/m² | - |
| 1777619114 | 0.56° C | 56% | 1010.4 hPa | 0 mm | - | 37 W/m² | - |
| 1777618809 | 0.56° C | 57% | 1010.4 hPa | 0 mm | - | 33 W/m² | - |
| 1777618503 | 1.11° C | 56% | 1010.1 hPa | 0 mm | - | 30 W/m² | - |
| 1777618200 | 1.11° C | 57% | 1010.1 hPa | 0 mm | - | 31 W/m² | - |
| 1777617897 | 1.11° C | 58% | 1010.1 hPa | 0 mm | - | 29 W/m² | - |
| 1777617592 | 1.11° C | 57% | 1010.1 hPa | 0 mm | - | 19 W/m² | - |
| 1777617289 | 1.11° C | 58% | 1010.1 hPa | 0 mm | - | 19 W/m² | - |
| 1777616986 | 1.11° C | 58% | 1010.1 hPa | 0 mm | - | 18 W/m² | - |
| 1777616681 | 1.11° C | 56% | 1010.1 hPa | 0 mm | - | 20 W/m² | - |
| 1777616376 | 1.11° C | 58% | 1009.7 hPa | 0 mm | - | 11 W/m² | - |
| 1777616073 | 1.11° C | 58% | 1010.1 hPa | 0 mm | - | 10 W/m² | - |
| 1777615770 | 1.67° C | 60% | 1009.7 hPa | 0 mm | - | 10 W/m² | - |
| 1777615467 | 1.67° C | 59% | 1009.4 hPa | 0 mm | - | 8 W/m² | - |
| 1777615166 | 1.67° C | 58% | 1009.4 hPa | 0 mm | - | 6 W/m² | - |
| 1777614862 | 1.67° C | 58% | 1009.4 hPa | 0 mm | - | 4 W/m² | - |
| 1777614559 | 1.67° C | 58% | 1009.4 hPa | 0 mm | - | 2 W/m² | - |
| 1777614254 | 1.67° C | 61% | 1009.4 hPa | 0 mm | - | 2 W/m² | - |
* Rain latest hour (hover to see other rain measurements)
** Current wind speed in m/s (hover to see current wind gust speed)